{"data":{"norad_id":28893,"epoch":"2026-05-25T03:50:58.668000Z","epoch_age_seconds":57618,"freshness":"FRESH","line1":"1 28893U 05043D   26145.16040125  .00000277  00000+0  62029-4 0  9997","line2":"2 28893  98.2829 279.3511 0014152 353.7565   6.3458 14.64139193 97154","mean_motion":14.64139193,"eccentricity":0.0014152,"inclination_deg":98.2829,"raan_deg":279.3511,"arg_perigee_deg":353.7565,"mean_anomaly_deg":6.3458,"bstar":6.2029e-5,"rev_number":9715,"period_min":98.351304772428,"perigee_km":669.85195728298,"apogee_km":689.82885653549,"semimajor_km":7057.9774069092,"source":"CELESTRAK","updated_at":"2026-05-25T13:38:12.743207Z"}}